Mesa, AZ

3:14 PM MST on December 08, 2016 (GMT -0700)
Phoenix-Mesa Gateway Airport

Weather History for KIWA - November, 2012

Change the Weather History Date:

Thursday, November 1, 2012

  Actual Average Record
Temperature  
Mean Temperature 70 °F -  
Max Temperature 86 °F 76 °F 102 °F (2008)
Min Temperature 53 °F 52 °F 44 °F (2000)
Cooling Degree Days 4    
Growing Degree Days 20 (Base 50)    
Moisture  
Dew Point 25 °F    
Average Humidity 25    
Maximum Humidity 35    
Minimum Humidity 10    
Precipitation  
Precipitation 0.00 in - - ()
Sea Level Pressure  
Sea Level Pressure 29.94 in    
Wind  
Wind Speed 6 mph (ESE)    
Max Wind Speed 9 mph    
Max Gust Speed -    
Visibility 12 miles    
Events      
Averages and records for this station are not official NWS values.
T = Trace of Precipitation, MM = Missing Value Source: NWS Daily Summary

Daily Weather History Graph

Daily Weather History Graph

Search for Another Location

Airport or City:

Trip Planner

Search our weather history database for the weather conditions in past years. The results will help you decide how hot, cold, wet, or windy it might be!

Date:

Astronomy

Nov. 01, 2012 Rise Set
Actual Time 6:45 AM MST 5:34 PM MST
Civil Twilight 6:19 AM MST 5:59 PM MST
Nautical Twilight 5:50 AM MST 6:29 PM MST
Astronomical Twilight 5:21 AM MST 6:58 PM MST
Moon 7:40 PM MST (11/1) 9:14 AM MST (11/1)
Length of Visible Light 11h 40m
Length of Day
10h 48m
Waning Gibbous, 92% of the Moon is Illuminated
Nov 1
Waning Gibbous
Nov 6
Last Quarter
Nov 13
New
Nov 20
First Quarter
Nov 28
Full

Hourly Weather History & Observations

Time (MST) Temp. Dew Point Humidity Pressure Visibility Wind Dir Wind Speed Gust Speed Precip Events Conditions
12:15 AM 55.4 °F 26.6 °F 33% 29.98 in 10.0 mi SE 8.1 mph - N/A   Clear
12:35 AM 55.4 °F 26.6 °F 33% 29.98 in 10.0 mi SE 5.8 mph - N/A   Clear
12:55 AM 55.4 °F 26.6 °F 33% 29.97 in 10.0 mi East 5.8 mph - N/A   Clear
1:15 AM 55.4 °F 26.6 °F 33% 29.98 in 10.0 mi ESE 6.9 mph - N/A   Clear
1:35 AM 55.4 °F 26.6 °F 33% 29.98 in 10.0 mi East 6.9 mph - N/A   Clear
1:55 AM 55.4 °F 24.8 °F 31% 29.97 in 10.0 mi East 9.2 mph - N/A   Clear
2:15 AM 57.2 °F 24.8 °F 29% 29.97 in 10.0 mi East 9.2 mph - N/A   Clear
2:35 AM 57.2 °F 24.8 °F 29% 29.97 in 10.0 mi ESE 8.1 mph - N/A   Clear
2:55 AM 57.2 °F 24.8 °F 29% 29.97 in 10.0 mi ESE 8.1 mph - N/A   Clear
3:15 AM 57.2 °F 23.0 °F 27% 29.97 in 10.0 mi East 9.2 mph - N/A   Clear
3:35 AM 55.4 °F 21.2 °F 26% 29.97 in 10.0 mi East 9.2 mph - N/A   Clear
3:55 AM 55.4 °F 21.2 °F 26% 29.97 in 10.0 mi East 8.1 mph - N/A   Clear
4:15 AM 53.6 °F 21.2 °F 28% 29.97 in 10.0 mi East 9.2 mph - N/A   Clear
4:35 AM 55.4 °F 21.2 °F 26% 29.98 in 10.0 mi East 8.1 mph - N/A   Clear
4:55 AM 53.6 °F 21.2 °F 28% 29.98 in 10.0 mi ESE 8.1 mph - N/A   Clear
5:15 AM 53.6 °F 21.2 °F 28% 29.98 in 10.0 mi ESE 8.1 mph - N/A   Clear
5:51 AM 53.6 °F 24.8 °F 33% 29.98 in 20.0 mi ESE 5.8 mph - N/A   Clear
6:56 AM 53.6 °F 26.6 °F 35% 29.99 in 35.0 mi ESE 5.8 mph - N/A   Partly Cloudy
7:47 AM 55.4 °F 26.6 °F 33% 30.00 in 35.0 mi ESE 4.6 mph - N/A   Partly Cloudy
9:52 AM 69.8 °F 26.6 °F 20% 30.00 in 35.0 mi Calm Calm - N/A   Scattered Clouds
10:51 AM 73.4 °F 23.0 °F 15% 30.00 in 35.0 mi West 4.6 mph - N/A   Scattered Clouds
11:47 AM 78.8 °F 26.6 °F 15% 29.98 in 35.0 mi West 4.6 mph - N/A   Scattered Clouds
12:48 PM 80.6 °F 24.8 °F 13% 29.95 in 35.0 mi West 3.5 mph - N/A   Scattered Clouds
1:48 PM 84.2 °F 24.8 °F 11% 29.92 in 35.0 mi West 6.9 mph - N/A   Scattered Clouds
2:47 PM 84.2 °F 23.0 °F 11% 29.90 in 35.0 mi WNW 4.6 mph - N/A   Scattered Clouds
3:47 PM 86.0 °F 23.0 °F 10% 29.89 in 35.0 mi West 3.5 mph - N/A   Partly Cloudy
4:47 PM 84.2 °F 21.2 °F 10% 29.88 in 35.0 mi Calm Calm - N/A   Partly Cloudy
5:51 PM 80.6 °F 21.2 °F 11% 29.88 in 20.0 mi NW 3.5 mph - N/A   Partly Cloudy
6:47 PM 77.0 °F 24.8 °F 14% 29.89 in 20.0 mi NW 4.6 mph - N/A   Partly Cloudy
7:47 PM 73.4 °F 26.6 °F 18% 29.89 in 20.0 mi Calm Calm - N/A   Partly Cloudy
7:55 PM 71.6 °F 26.6 °F 19% 29.89 in 10.0 mi Calm Calm - N/A   Clear
8:15 PM 66.2 °F 30.2 °F 26% 29.90 in 10.0 mi Calm Calm - N/A   Clear
8:35 PM 64.4 °F 30.2 °F 28% 29.90 in 10.0 mi Calm Calm - N/A   Clear
8:47 PM 66.2 °F 28.4 °F 24% 29.90 in 20.0 mi Calm Calm - N/A   Partly Cloudy
8:55 PM 64.4 °F 30.2 °F 28% 29.90 in 10.0 mi Calm Calm - N/A   Clear
9:15 PM 64.4 °F 32.0 °F 30% 29.90 in 10.0 mi Calm Calm - N/A   Clear
9:35 PM 62.6 °F 32.0 °F 32% 29.91 in 10.0 mi Calm Calm - N/A   Clear
9:55 PM 62.6 °F 32.0 °F 32% 29.91 in 10.0 mi Calm Calm - N/A   Clear
10:15 PM 60.8 °F 28.4 °F 29% 29.91 in 10.0 mi ESE 3.5 mph - N/A   Clear
10:35 PM 60.8 °F 24.8 °F 25% 29.92 in 10.0 mi ESE 4.6 mph - N/A   Clear
10:55 PM 60.8 °F 26.6 °F 27% 29.91 in 10.0 mi ESE 5.8 mph - N/A   Clear
11:15 PM 60.8 °F 24.8 °F 25% 29.92 in 10.0 mi ESE 5.8 mph - N/A   Clear
11:35 PM 59.0 °F 23.0 °F 25% 29.92 in 10.0 mi ESE 5.8 mph - N/A   Clear
11:55 PM 57.2 °F 23.0 °F 27% 29.92 in 10.0 mi ESE 5.8 mph - N/A   Clear